Location: Unnamed
(42.1164°N, 2.7652°E)
Time: 19:41:38
(UTC+02:00)

ISS - Pass Details

Date: 08 May 2021
Orbit: 417 x 422 km, 51.6° (Epoch: 14 June)

Event Time Altitude Azimuth Distance (km) Brightness Sun altitude
Rises 05:55:34 0° 306° (NW) 2,376 -0.2 -7.4°
Reaches altitude 10° 05:58:01 10° 323° (NW) 1,511 -1.0 -7.0°
Maximum altitude 06:00:41 21° 15° (NNE) 1,008 -1.2 -6.6°
Drops below altitude 10° 06:03:21 10° 67° (ENE) 1,509 0.9 -6.2°
Sets 06:05:48 0° 84° (E) 2,373 1.5 -5.8°
